Kt Birdie — 3FUJ7 — position and weather

sailwx.info

Track history (hours):
 
Tides and Currents Weather Stations Pressure Air Temp Water Temp Dewpoint Dewpoint Depression Visibility Wind Speed Wind Dir Waves Ship Positions

Kt Birdie

Last reported at 2014-Jul-23 01:33 UTC. Time now 2014-Jul-23 01:46 UTC.
Position N 38°20' E 121°31'.

Length 225 m; draft 13.3 m.

Type: Cargo ship. MMSI: 354803000.

Date/timePositionNaut miles runAvg speedWind from/ knotsBaromVisibWave heightAir tempDewpointWater temp
2014-Jul-23 01:33N 38°20' E 121°31'1211.7
2014-Jul-23 00:33N 38°14' E 121°44'1211.4
2014-Jul-22 23:33N 38°08' E 121°57'1111.4
2014-Jul-22 22:33N 38°03' E 122°10'1111.0
2014-Jul-22 21:33N 37°57' E 122°22'1111.0
2014-Jul-22 20:32N 37°51' E 122°34'1111.0
2014-Jul-22 19:34N 37°46' E 122°46'1110.9
2014-Jul-22 18:34N 37°40' E 122°57'1111.2
2014-Jul-22 17:34N 37°30' E 123°04'1111.2
2014-Jul-22 16:34N 37°20' E 123°09'  
Track history (hours):
 
Tides and Currents Weather Stations Pressure Air Temp Water Temp Dewpoint Dewpoint Depression Visibility Wind Speed Wind Dir Waves Ship Positions

Kt Birdie

Last reported at 2014-Jul-23 01:33 UTC. Time now 2014-Jul-23 01:46 UTC.
Position N 38°20' E 121°31'.

Length 225 m; draft 13.3 m.

Type: Cargo ship. MMSI: 354803000.

Date/timePositionNaut miles runAvg speedWind from/ knotsBaromVisibWave heightAir tempDewpointWater temp
2014-Jul-23 01:33N 38°20' E 121°31'1211.7
2014-Jul-23 00:33N 38°14' E 121°44'1211.4
2014-Jul-22 23:33N 38°08' E 121°57'1111.4
2014-Jul-22 22:33N 38°03' E 122°10'1111.0
2014-Jul-22 21:33N 37°57' E 122°22'1111.0
2014-Jul-22 20:32N 37°51' E 122°34'1111.0
2014-Jul-22 19:34N 37°46' E 122°46'1110.9
2014-Jul-22 18:34N 37°40' E 122°57'1111.2
2014-Jul-22 17:34N 37°30' E 123°04'1111.2
2014-Jul-22 16:34N 37°20' E 123°09'  

Dump ship's entire track history